TimeMST,TemperatureF,Dew PointF,Humidity,Sea Level PressureIn,VisibilityMPH,Wind Direction,Wind SpeedMPH,Gust SpeedMPH,PrecipitationIn,Events,Conditions,WindDirDegrees,DateUTC
9:44 AM,6.8,3.2,85,29.46,-9999.0,SSW,19.6,36.8,0.03,,Overcast,210,2012-12-19 16:44:00
10:04 AM,5.0,3.2,92,29.46,-9999.0,SSW,12.7,34.5,N/A,,Overcast,210,2012-12-19 17:04:00
10:22 AM,5.0,3.2,92,29.47,-9999.0,SW,16.1,33.4,0.04,,Overcast,220,2012-12-19 17:22:00
10:44 AM,6.8,5.0,92,29.48,-9999.0,SW,16.1,26.5,0.09,,Overcast,220,2012-12-19 17:44:00
11:04 AM,6.8,5.0,92,29.48,-9999.0,SW,18.4,28.8,0.02,,Overcast,220,2012-12-19 18:04:00
11:23 AM,6.8,3.2,85,29.47,-9999.0,SW,17.3,25.3,0.04,,Overcast,220,2012-12-19 18:23:00
11:44 AM,6.8,3.2,85,29.47,-9999.0,SSW,19.6,28.8,0.08,,Overcast,210,2012-12-19 18:44:00
12:04 PM,6.8,5.0,92,29.48,-9999.0,SW,18.4,26.5,N/A,,Overcast,220,2012-12-19 19:04:00
12:24 PM,6.8,5.0,92,29.49,-9999.0,SW,18.4,25.3,0.05,,Overcast,220,2012-12-19 19:24:00
12:44 PM,6.8,3.2,85,29.51,-9999.0,SSW,15.0,23.0,0.08,,Overcast,210,2012-12-19 19:44:00
1:04 PM,6.8,3.2,85,29.54,-9999.0,West,4.6,-,0.01,,Overcast,270,2012-12-19 20:04:00
1:24 PM,6.8,3.2,85,29.55,-9999.0,WSW,10.4,16.1,0.02,,Unknown,250,2012-12-19 20:24:00
1:44 PM,6.8,3.2,85,29.57,-9999.0,West,9.2,17.3,0.05,,Unknown,260,2012-12-19 20:44:00
2:04 PM,5.0,1.4,85,29.59,-9999.0,Calm,Calm,-,N/A,,Unknown,0,2012-12-19 21:04:00
2:23 PM,3.2,-0.4,85,29.61,-9999.0,WNW,9.2,16.1,0.03,,Unknown,300,2012-12-19 21:23:00
2:44 PM,3.2,-0.4,85,29.62,-9999.0,NNW,8.1,18.4,0.06,,Unknown,330,2012-12-19 21:44:00
3:03 PM,3.2,-0.4,85,29.64,-9999.0,NNW,4.6,-,N/A,,Unknown,330,2012-12-19 22:03:00
3:24 PM,3.2,-0.4,85,29.66,-9999.0,NW,5.8,-,0.02,,Unknown,320,2012-12-19 22:24:00
3:44 PM,3.2,-0.4,85,29.69,-9999.0,NNE,4.6,-,0.06,,Unknown,20,2012-12-19 22:44:00
4:04 PM,1.4,-4.0,78,29.70,-9999.0,NE,9.2,-,N/A,,Unknown,50,2012-12-19 23:04:00
4:24 PM,-2.2,-5.8,85,29.72,-9999.0,NE,17.3,24.2,0.02,,Unknown,40,2012-12-19 23:24:00
4:44 PM,-4.0,-7.6,85,29.74,-9999.0,NNE,16.1,25.3,0.02,,Unknown,20,2012-12-19 23:44:00
5:03 PM,-4.0,-7.6,85,29.76,-9999.0,NNE,19.6,34.5,N/A,,Unknown,20,2012-12-20 00:03:00
5:24 PM,-4.0,-7.6,85,29.77,-9999.0,NNE,24.2,32.2,N/A,,Unknown,20,2012-12-20 00:24:00
5:44 PM,-4.0,-7.6,85,29.78,-9999.0,NNE,23.0,28.8,N/A,,Unknown,30,2012-12-20 00:44:00
6:04 PM,-5.8,-9.4,84,29.80,-9999.0,NNE,20.7,27.6,N/A,,Unknown,30,2012-12-20 01:04:00
6:24 PM,-5.8,-9.4,84,29.82,-9999.0,NNE,24.2,42.6,N/A,,Unknown,30,2012-12-20 01:24:00
6:44 PM,-5.8,-9.4,84,29.85,-9999.0,NNE,15.0,21.9,N/A,,Unknown,30,2012-12-20 01:44:00
7:04 PM,-5.8,-9.4,84,29.86,-9999.0,NNE,9.2,-,N/A,,Unknown,20,2012-12-20 02:04:00
7:24 PM,-7.6,-11.2,84,29.87,-9999.0,NNE,12.7,-,N/A,,Unknown,30,2012-12-20 02:24:00
7:44 PM,-7.6,-13.0,77,29.89,-9999.0,NNE,11.5,-,N/A,,Unknown,30,2012-12-20 02:44:00
8:04 PM,-7.6,-13.0,77,29.89,-9999.0,NE,16.1,24.2,N/A,,Unknown,40,2012-12-20 03:04:00
8:24 PM,-7.6,-11.2,84,29.90,-9999.0,NE,16.1,21.9,N/A,,Unknown,40,2012-12-20 03:24:00
8:44 PM,-7.6,-13.0,77,29.91,-9999.0,NE,11.5,-,N/A,,Unknown,50,2012-12-20 03:44:00
9:04 PM,-7.6,-13.0,77,29.92,-9999.0,NNE,11.5,19.6,N/A,,Unknown,30,2012-12-20 04:04:00
9:24 PM,-5.8,-9.4,84,29.94,-9999.0,NNE,10.4,23.0,N/A,,Unknown,30,2012-12-20 04:24:00
9:44 PM,-5.8,-9.4,84,29.95,-9999.0,NE,15.0,31.1,N/A,,Unknown,50,2012-12-20 04:44:00
10:04 PM,-5.8,-9.4,84,29.96,-9999.0,NE,18.4,23.0,N/A,,Unknown,40,2012-12-20 05:04:00
10:24 PM,-5.8,-9.4,84,29.97,-9999.0,NE,19.6,29.9,N/A,,Unknown,40,2012-12-20 05:24:00
10:44 PM,-4.0,-7.6,85,29.99,-9999.0,NE,20.7,31.1,N/A,,Unknown,40,2012-12-20 05:44:00
11:04 PM,-4.0,-7.6,85,30.00,-9999.0,NE,23.0,35.7,N/A,,Unknown,40,2012-12-20 06:04:00
11:24 PM,-0.4,-4.0,85,30.03,-9999.0,NNE,17.3,33.4,N/A,,Unknown,20,2012-12-20 06:24:00
11:44 PM,-0.4,-5.8,78,30.05,-9999.0,WNW,3.5,-,N/A,,Unknown,300,2012-12-20 06:44:00